Location: Dennehotso
(36.8461°N, 109.8435°W)
Time: 14:57:05
(UTC+00:00)

Envisat - Pass Details

Date: 09 March 2021
Orbit: 764 x 766 km, 98.1° (Epoch: 17 April)

Event Time Altitude Azimuth Distance (km) Brightness Sun altitude
Rises 12:58:12 0° 12° (NNE) 3,238 6.4 -8.9°
Reaches altitude 10° 13:00:30 10° 12° (NNE) 2,308 5.7 -8.4°
Maximum altitude 13:05:36 89° 290° (WNW) 770 3.0 -7.4°
Drops below altitude 10° 13:10:40 10° 194° (SSW) 2,291 5.3 -6.4°
Sets 13:12:57 0° 195° (SSW) 3,213 6.1 -5.9°
